CW7841 Weather Reports


Display with metric or nautical units.
time (UTC)temp
F
wind
direction
speed
MPH
gust
MPH
rain 1hr
in
rain 24hr
in
rain mn
in
humidity
%
barometer
mb
20180820050218 78 289 0.0 0.0 0.00 0.00 0.00 86 1019.5
20180820045718 78 285 0.0 0.0 0.00 0.00 0.00 86 1019.4
20180820044718 78 289 0.0 0.0 0.00 0.00 0.00 86 1019.7
20180820043718 78 289 0.0 0.0 0.00 0.00 0.00 86 1019.6
20180820041718 78 275 0.0 0.0 0.00 0.00 0.00 86 1020.0
20180820040718 78 288 0.0 0.0 0.00 0.00 0.00 85 1019.7
20180820035718 78 289 0.0 0.0 0.00 0.00 0.00 85 1020.0
20180820034218 78 288 0.0 0.0 0.00 0.00 0.00 85 1019.9
20180820033718 78 288 0.0 0.0 0.00 0.00 0.00 85 1019.9
20180820033218 78 289 0.0 0.0 0.00 0.00 0.00 85 1019.9
20180820032218 78 288 0.0 0.0 0.00 0.00 0.00 85 1019.9
20180820031718 78 286 0.0 0.0 0.00 0.00 0.00 85 1019.9
20180820030718 79 268 0.0 0.0 0.00 0.00 0.00 85 1019.7
20180820030218 79 281 0.0 0.0 0.00 0.00 0.00 85 1019.8
20180820025718 79 285 0.0 0.0 0.00 0.00 0.00 86 1019.7
20180820024219 79 287 0.0 0.0 0.00 0.00 0.00 85 1019.8
20180820022718 79 288 0.0 0.0 0.00 0.00 0.00 85 1019.6
20180820022218 79 288 0.0 0.0 0.00 0.00 0.00 85 1019.6
20180820021718 79 288 0.0 0.0 0.00 0.00 0.00 85 1019.4
20180820021219 79 288 0.0 0.0 0.00 0.00 0.00 85 1019.3
20180820020719 79 288 0.0 0.0 0.00 0.00 0.00 85 1019.5
20180820020219 79 288 0.0 0.0 0.00 0.00 0.00 85 1019.4
20180820015719 79 288 0.0 0.0 0.00 0.00 0.00 85 1019.8
20180820015218 79 288 0.0 0.0 0.00 0.00 0.00 84 1019.5
20180820014719 80 284 0.0 0.0 0.00 0.00 0.00 84 1019.6
20180820014218 80 277 0.0 0.0 0.00 0.00 0.00 86 1019.6
20180820013719 80 284 0.0 0.0 0.00 0.00 0.00 83 1019.6
20180820013219 80 287 0.0 0.0 0.00 0.00 0.00 82 1019.6
20180820012718 80 288 0.0 0.0 0.00 0.00 0.00 82 1019.3
20180820012219 80 287 0.0 0.0 0.00 0.00 0.00 81 1019.3
20180820011718 80 285 0.0 0.0 0.00 0.00 0.00 81 1019.7
20180820011219 81 285 0.0 0.0 0.00 0.00 0.00 80 1019.2
20180820005719 81 284 0.0 0.0 0.00 0.00 0.00 79 1019.0
20180820005219 81 280 0.0 0.0 0.00 0.00 0.00 79 1019.1
20180820004719 81 238 0.0 0.0 0.00 0.00 0.00 79 1018.7
20180820003218 81 228 0.0 0.0 0.00 0.00 0.00 78 1018.8
20180820002219 81 245 0.0 0.0 0.00 0.00 0.00 78 1018.7
20180820000719 81 229 0.0 0.0 0.00 0.00 0.00 78 1018.9
20180819235219 82 244 0.0 0.0 0.00 0.00 0.00 76 1018.6
20180819234719 82 247 0.0 0.0 0.00 0.00 0.00 75 1018.6
20180819233719 82 252 0.0 0.0 0.00 0.00 0.00 75 1018.3
20180819233219 82 254 0.0 0.0 0.00 0.00 0.00 74 1018.3
20180819231719 83 244 0.0 0.0 0.00 0.00 0.00 74 1018.2
20180819230219 83 230 0.0 0.0 0.00 0.00 0.00 73 1018.4
20180819225719 84 230 5.0 10.0 0.00 0.00 0.00 74 1018.5
20180819225219 84 226 0.0 10.0 0.00 0.00 0.00 72 1018.8
20180819224219 85 220 3.0 10.0 0.00 0.00 0.00 71 1018.6
20180819223219 87 244 0.0 9.0 0.00 0.00 0.00 78 1018.3
20180819221719 88 193 2.0 9.0 0.00 0.00 0.00 78 1018.3
20180819220719 88 136 0.0 7.0 0.00 0.00 0.00 77 1018.1
20180819220219 88 131 3.0 5.0 0.00 0.00 0.00 77 1018.3
20180819215719 88 133 0.0 14.0 0.00 0.00 0.00 77 1018.1
20180819215219 88 118 6.0 14.0 0.00 0.00 0.00 77 1018.1
20180819214219 88 105 5.0 14.0 0.00 0.00 0.00 76 1018.1
20180819213719 88 148 2.0 14.0 0.00 0.00 0.00 76 1018.3
20180819212719 88 149 0.0 14.0 0.00 0.00 0.00 76 1018.1
20180819211219 89 92 6.0 14.0 0.00 0.00 0.00 76 1018.0
20180819210219 89 124 1.0 6.0 0.00 0.00 0.00 76 1018.2
20180819205719 88 125 0.0 11.0 0.00 0.00 0.00 78 1018.2
20180819205219 88 99 0.0 11.0 0.00 0.00 0.00 77 1018.1
20180819204219 88 119 0.0 11.0 0.00 0.00 0.00 77 1017.7
20180819203719 88 112 0.0 11.0 0.00 0.00 0.00 76 1017.6
20180819202719 88 119 6.0 10.0 0.00 0.00 0.00 77 1017.9
20180819202219 88 111 4.0 10.0 0.00 0.00 0.00 76 1017.8
20180819201719 88 110 3.0 10.0 0.00 0.00 0.00 76 1018.3
20180819200719 88 60 0.0 4.0 0.00 0.00 0.00 76 1018.0
20180819200219 88 87 0.0 0.0 0.00 0.00 0.00 76 1018.0
20180819195219 88 82 0.0 14.0 0.00 0.00 0.00 76 1017.8
20180819193219 88 115 0.0 14.0 0.00 0.00 0.00 76 1017.9
20180819192219 89 105 9.0 14.0 0.00 0.00 0.00 77 1018.1
20180819191219 88 117 3.0 10.0 0.00 0.00 0.00 80 1018.1
20180819190720 88 109 0.0 10.0 0.00 0.00 0.00 79 1018.5
20180819185719 88 127 6.0 14.0 0.00 0.00 0.00 81 1018.3
20180819185219 88 58 0.0 14.0 0.00 0.00 0.00 80 1018.3
20180819184720 88 118 2.0 14.0 0.00 0.00 0.00 80 1018.4
20180819183720 88 65 0.0 14.0 0.00 0.00 0.00 79 1018.6
20180819183219 88 107 5.0 11.0 0.00 0.00 0.00 79 1018.4
20180819182720 88 67 0.0 11.0 0.00 0.00 0.00 78 1018.5
20180819181719 89 80 0.0 10.0 0.00 0.00 0.00 76 1018.8
20180819180719 89 121 4.0 10.0 0.00 0.00 0.00 77 1018.9
20180819180220 88 154 0.0 0.0 0.00 0.00 0.00 77 1019.1
20180819175720 89 57 0.0 10.0 0.00 0.00 0.00 77 1018.9
20180819174720 89 118 0.0 10.0 0.00 0.00 0.00 76 1019.1
20180819174219 89 40 0.0 10.0 0.00 0.00 0.00 76 1019.1
20180819173220 89 44 0.0 10.0 0.00 0.00 0.00 78 1019.2
20180819172220 88 130 10.0 10.0 0.00 0.00 0.00 79 1019.3
20180819171719 88 39 0.0 10.0 0.00 0.00 0.00 77 1019.2
20180819170220 88 107 0.0 10.0 0.00 0.00 0.00 78 1019.3
20180819165720 88 107 5.0 10.0 0.00 0.00 0.00 79 1019.3
20180819163720 88 60 0.0 10.0 0.00 0.00 0.00 78 1019.7
20180819161220 87 108 6.0 9.0 0.00 0.00 0.00 80 1019.7
20180819160720 87 110 5.0 9.0 0.00 0.00 0.00 81 1019.8
20180819160220 86 93 0.0 4.0 0.00 0.00 0.00 81 1019.5
20180819155220 86 59 0.0 8.0 0.00 0.02 0.00 82 1019.8
20180819154720 86 36 0.0 8.0 0.00 0.02 0.00 81 1019.6
20180819153720 86 34 0.0 8.0 0.00 0.02 0.00 83 1019.9
20180819153220 86 81 3.0 8.0 0.00 0.02 0.00 82 1019.8
20180819152720 86 119 0.0 7.0 0.00 0.02 0.00 83 1019.8
20180819152220 86 38 0.0 7.0 0.00 0.02 0.00 84 1019.8
20180819151720 86 36 4.0 7.0 0.00 0.02 0.00 82 1019.9
20180819151220 87 60 0.0 2.0 0.00 0.02 0.00 81 1019.8
20180819150220 87 144 0.0 0.0 0.00 0.02 0.00 82 1019.9
20180819145720 86 153 0.0 5.0 0.00 0.02 0.00 79 1019.6
20180819145220 86 197 0.0 5.0 0.00 0.02 0.00 80 1019.8
20180819143220 85 189 0.0 5.0 0.00 0.02 0.00 84 1019.7
20180819134720 83 182 0.0 0.0 0.00 0.02 0.00 92 1019.1
20180819133220 82 180 0.0 0.0 0.00 0.02 0.00 93 1019.1
20180819132220 82 163 0.0 0.0 0.00 0.02 0.00 96 1018.9
20180819131720 81 180 0.0 0.0 0.00 0.02 0.00 94 1019.0
20180819125720 80 181 0.0 0.0 0.00 0.02 0.00 97 1018.8
20180819125221 80 167 0.0 0.0 0.00 0.02 0.00 95 1018.7
20180819124720 80 180 0.0 0.0 0.00 0.02 0.00 98 1018.6
20180819124220 79 181 0.0 0.0 0.00 0.02 0.00 95 1018.6
20180819123720 79 182 0.0 0.0 0.00 0.02 0.00 94 1018.7
20180819122220 78 181 0.0 0.0 0.00 0.02 0.00 94 1018.4
20180819121720 78 182 0.0 0.0 0.00 0.02 0.00 93 1018.1
20180819120720 77 182 0.0 0.0 0.00 0.02 0.00 93 1018.2
20180819115720 77 182 0.0 0.0 0.00 0.02 0.00 92 1018.0
20180819114721 77 182 0.0 0.0 0.00 0.02 0.00 92 1018.0
20180819114220 77 180 0.0 0.0 0.00 0.02 0.00 91 1017.8
20180819113720 77 179 0.0 0.0 0.00 0.02 0.00 91 1017.7
20180819113220 77 180 0.0 0.0 0.00 0.02 0.00 92 1017.9
20180819112720 77 179 0.0 0.0 0.00 0.02 0.00 91 1017.8
20180819110220 77 178 0.0 0.0 0.00 0.02 0.00 92 1017.5
20180819103220 77 178 0.0 0.0 0.00 0.02 0.00 91 1017.5
20180819102720 77 179 0.0 0.0 0.00 0.02 0.00 91 1017.1
20180819102220 77 179 0.0 0.0 0.00 0.02 0.00 91 1017.0
20180819101721 77 179 0.0 0.0 0.00 0.02 0.00 91 1017.2
20180819101220 78 173 0.0 0.0 0.00 0.02 0.00 92 1017.1
20180819100221 78 179 0.0 0.0 0.00 0.02 0.00 91 1017.3
20180819094221 78 179 0.0 0.0 0.00 0.02 0.00 90 1017.0
20180819091721 78 179 0.0 0.0 0.00 0.02 0.00 90 1017.0
20180819091221 78 179 0.0 0.0 0.00 0.02 0.00 90 1016.9
20180819090721 78 179 0.0 0.0 0.00 0.02 0.00 90 1016.8
20180819090221 78 179 0.0 0.0 0.00 0.02 0.00 90 1016.7
20180819085221 78 177 0.0 0.0 0.00 0.02 0.00 91 1016.7
20180819084721 78 178 0.0 0.0 0.00 0.02 0.00 90 1016.7
20180819084221 78 178 0.0 0.0 0.00 0.02 0.00 90 1016.5
20180819082721 79 178 0.0 0.0 0.00 0.02 0.00 90 1016.7
20180819082221 79 178 0.0 0.0 0.00 0.02 0.00 90 1016.8
20180819081721 79 179 0.0 0.0 0.00 0.02 0.00 90 1016.8
20180819081221 79 178 0.0 0.0 0.00 0.02 0.00 90 1016.7
20180819075721 79 176 0.0 0.0 0.00 0.02 0.00 90 1016.8
20180819075221 79 176 0.0 0.0 0.00 0.02 0.00 90 1016.8
20180819074721 79 171 0.0 0.0 0.00 0.02 0.00 90 1016.9
20180819074221 79 178 0.0 0.0 0.00 0.02 0.00 90 1016.9
20180819072721 80 175 0.0 0.0 0.00 0.02 0.00 90 1017.1
20180819071721 80 177 0.0 0.0 0.00 0.02 0.00 90 1016.9
20180819071221 80 178 0.0 0.0 0.00 0.02 0.00 89 1017.1
20180819070721 80 179 0.0 0.0 0.00 0.02 0.00 89 1017.2
20180819070221 80 179 0.0 0.0 0.00 0.02 0.00 89 1017.3
20180819065721 80 179 0.0 0.0 0.00 0.02 0.00 89 1017.6
20180819065221 80 179 0.0 0.0 0.00 0.02 0.00 89 1017.6
20180819064721 80 179 0.0 0.0 0.00 0.02 0.00 89 1017.8
20180819064221 80 179 0.0 0.0 0.00 0.02 0.00 89 1017.7
20180819063221 80 178 0.0 0.0 0.00 0.02 0.00 89 1018.0
20180819062721 80 178 0.0 0.0 0.00 0.02 0.00 89 1018.0
20180819061221 80 177 0.0 0.0 0.00 0.02 0.00 89 1018.2
20180819060721 80 174 0.0 0.0 0.00 0.02 0.00 89 1018.1
20180819054221 80 176 0.0 0.0 0.00 0.02 0.00 88 1018.6
20180819053721 81 178 0.0 0.0 0.00 0.02 0.00 88 1018.6
20180819053221 81 179 0.0 0.0 0.00 0.02 0.00 88 1018.6
20180819052221 81 179 0.0 0.0 0.00 0.02 0.00 88 1018.7
20180819051721 81 179 0.0 0.0 0.00 0.02 0.00 88 1018.6
20180819051221 81 178 0.0 0.0 0.00 0.02 0.00 88 1018.8
20180819050721 81 177 0.0 0.0 0.00 0.02 0.00 90 1018.8